Weather History for Imperial, NE

Change the Weather History Date:

Thursday, March 27, 2014

  Actual Average Record
Temperature  
Mean Temperature 42 °F 43 °F  
Max Temperature 53 °F 57 °F 85 °F (1988)
Min Temperature 30 °F 29 °F -8 °F (1899)
Degree Days  
Heating Degree Days 23 22  
Month to date heating degree days 701 693  
Cooling Degree Days 0 0  
Month to date cooling degree days 0 0  
Year to date cooling degree days 0 0  
Moisture  
Dew Point 29 °F    
Average Humidity 64    
Maximum Humidity 89    
Minimum Humidity 38    
Precipitation  
Precipitation 0.03 in 0.04 in 1.52 in (1901)
Sea Level Pressure  
Sea Level Pressure 29.62 in    
Wind  
Wind Speed 16 mph (North)    
Max Wind Speed 32 mph    
Max Gust Speed 38 mph    
Visibility 10 miles    
Events Rain , Snow    
T = Trace of Precipitation, MM = Missing Value Source: NWS Daily Summary

Daily Weather History Graph

Daily Weather History Graph

Search for Another Location

Airport:

Trip Planner

Search our weather history database for the weather conditions in past years. The results will help you decide how hot, cold, wet, or windy it might be!

Date:

Astronomy

Mar. 27, 2014 Rise Set
Actual Time 6:38 AM MDT 7:05 PM MDT
Civil Twilight 6:10 AM MDT 7:33 PM MDT
Nautical Twilight 5:38 AM MDT 8:05 PM MDT
Astronomical Twilight 5:05 AM MDT 8:38 PM MDT
Moon 4:31 AM MDT (3/27) 3:55 PM MDT (3/27)
Length of Visible Light 13h 22m
Length of Day
12h 27m
Waning Crescent, 12% of the Moon is Illuminated
Mar 27
Waning Crescent
Mar 30
New
Apr 7
First Quarter
Apr 15
Full
Apr 22
Last Quarter

Hourly Weather History & Observations

Time (MDT) Temp. Windchill Dew Point Humidity Pressure Visibility Wind Dir Wind Speed Gust Speed Precip Events Conditions
12:53 AM 45.0 °F 41.8 °F 41.0 °F 86% 29.27 in 8.0 mi West 5.8 mph - N/A   Unknown
1:53 AM 46.9 °F - 39.9 °F 77% 29.26 in 10.0 mi NNW 25.3 mph 34.5 mph N/A   Unknown
2:53 AM 45.0 °F 34.9 °F 35.1 °F 68% 29.29 in 10.0 mi North 32.2 mph 38.0 mph N/A   Unknown
3:53 AM 42.1 °F 33.9 °F 30.0 °F 62% 29.32 in 10.0 mi North 17.3 mph 27.6 mph N/A   Unknown
4:53 AM 39.0 °F 29.9 °F 32.0 °F 76% 29.37 in 10.0 mi North 17.3 mph - 0.00 in Rain Light Rain
5:53 AM 37.0 °F 27.7 °F 32.0 °F 82% 29.42 in 10.0 mi NNW 16.1 mph - 0.02 in Rain Light Rain
6:53 AM 35.1 °F 23.3 °F 30.9 °F 85% 29.46 in 8.0 mi NNW 23.0 mph - 0.01 in Snow Light Snow
7:53 AM 35.1 °F 24.1 °F 30.0 °F 82% 29.53 in 10.0 mi NNW 19.6 mph - 0.00 in   Unknown
8:53 AM 34.0 °F 21.3 °F 28.9 °F 82% 29.58 in 10.0 mi NNW 25.3 mph 33.4 mph N/A   Unknown
9:53 AM 34.0 °F 20.8 °F 27.0 °F 75% 29.63 in 10.0 mi North 27.6 mph 34.5 mph N/A   Unknown
10:53 AM 37.9 °F 27.6 °F 26.1 °F 62% 29.66 in 10.0 mi North 20.7 mph - N/A   Unknown
11:53 AM 42.1 °F 32.8 °F 27.0 °F 55% 29.68 in 10.0 mi North 21.9 mph - N/A   Unknown
12:53 PM 46.0 °F 38.5 °F 28.0 °F 50% 29.68 in 10.0 mi NNW 19.6 mph 28.8 mph N/A   Unknown
1:53 PM 48.0 °F - 28.9 °F 48% 29.68 in 10.0 mi North 19.6 mph 31.1 mph N/A   Unknown
2:53 PM 48.9 °F - 28.9 °F 46% 29.68 in 10.0 mi NNW 20.7 mph 25.3 mph N/A   Unknown
3:53 PM 53.1 °F - 28.0 °F 38% 29.68 in 10.0 mi NNW 17.3 mph 25.3 mph N/A   Unknown
4:53 PM 51.1 °F - 26.1 °F 38% 29.71 in 10.0 mi North 12.7 mph - N/A   Unknown
5:53 PM 48.9 °F - 27.0 °F 43% 29.74 in 10.0 mi NNE 6.9 mph - N/A   Unknown
6:53 PM 46.0 °F 41.4 °F 27.0 °F 47% 29.77 in 10.0 mi NE 9.2 mph - N/A   Unknown
7:53 PM 39.0 °F 31.4 °F 28.0 °F 65% 29.83 in 10.0 mi ENE 12.7 mph - N/A   Unknown
8:53 PM 34.0 °F 28.0 °F 26.1 °F 73% 29.88 in 10.0 mi ESE 6.9 mph - N/A   Unknown
9:53 PM 34.0 °F 28.8 °F 26.1 °F 73% 29.92 in 10.0 mi East 5.8 mph - N/A   Unknown
10:53 PM 32.0 °F - 25.0 °F 75% 29.96 in 10.0 mi Calm Calm - N/A   Unknown
11:53 PM 30.9 °F 26.2 °F 26.1 °F 82% 29.97 in 10.0 mi East 4.6 mph - N/A   Unknown